Wind_Speed
48 49 49 50 51 48 44 44 45 50 54 59 58 49 48 46 50 52 54 50 48 46 43 42 40 40 38 36 33 32 29 26 24 23 22 22 21 21 21 20 19 17 18 19 19 20 19 20 23
48 51 52 54 55 51 50 50 50 54 59 59 57 56 51 50 50 54 57 55 51 49 47 45 43 42 41 36 35 34 32 29 27 26 25 25 25 24 23 22 22 21 21 22 22 23 24 26 27
53 55 56 57 60 62 58 57 57 59 60 63 61 56 55 54 54 56 60 59 55 53 50 48 45 43 43 40 38 36 34 32 30 30 29 27 26 25 24 24 24 25 25 26 26 27 28 29 30
57 60 62 64 67 68 68 67 63 66 67 68 64 60 57 59 58 59 60 61 59 57 53 50 48 46 46 45 46 43 40 37 36 36 34 32 31 29 30 30 30 30 31 31 31 32 32 31 32
63 65 68 70 73 74 76 80 74 72 72 74 75 66 59 61 63 61 62 62 62 60 56 54 51 49 47 48 47 45 46 45 43 40 38 36 35 34 33 33 34 34 34 33 34 34 34 34 34
67 71 73 74 77 79 82 84 82 82 78 76 79 76 66 63 66 65 64 63 63 62 60 57 54 51 50 49 48 45 44 43 43 42 41 39 38 38 36 36 36 36 36 35 35 36 36 36 35
71 73 74 73 69 72 74 71 69 71 76 81 77 78 77 69 67 68 66 64 64 63 61 59 57 55 52 51 49 47 45 43 42 42 42 42 42 40 39 38 38 37 37 36 36 37 37 36 33
67 68 70 70 71 74 72 64 65 65 69 79 75 74 82 73 67 67 63 65 64 65 63 61 59 57 54 52 50 50 48 44 42 42 41 41 40 39 37 35 36 35 35 34 35 33 33 33 31
68 70 71 69 71 73 69 60 56 59 66 73 75 74 81 80 70 68 62 63 62 65 65 63 61 58 56 53 51 51 49 46 44 42 42 40 41 40 38 37 35 35 36 34 33 32 30 29 32
62 67 67 65 69 66 64 55 49 50 61 73 80 77 82 85 75 68 65 60 66 66 68 65 63 59 57 54 52 50 49 47 46 45 44 43 41 40 39 38 37 37 36 34 33 30 31 34 31
57 58 63 62 61 60 58 51 43 41 51 68 79 81 84 87 80 70 66 62 64 67 65 65 63 59 57 54 52 49 49 48 47 48 46 43 42 41 41 38 38 35 34 31 30 34 36 33 32
53 53 56 59 60 60 53 45 37 39 50 61 74 83 86 91 83 70 67 60 50 56 64 61 65 58 56 53 52 52 49 50 47 47 47 45 43 43 44 41 38 35 32 33 36 38 33 33 32
49 49 52 55 55 57 49 41 37 36 42 53 69 79 86 92 85 70 60 61 43 48 52 60 61 60 56 53 50 52 52 49 49 50 48 46 43 45 41 39 38 37 34 38 40 38 36 34 34
47 43 50 51 52 54 49 38 34 30 41 51 64 81 88 92 86 72 59 63 54 50 52 53 57 60 58 56 52 52 53 52 50 50 48 46 47 45 42 42 40 36 37 39 42 38 36 34 35
47 44 44 48 48 51 51 39 31 30 39 46 60 79 91 94 87 72 66 58 59 54 58 51 50 55 59 57 55 55 56 53 51 47 46 48 46 44 44 44 36 40 45 43 46 43 38 36 37
47 40 45 45 45 47 50 42 30 28 34 42 57 78 94 93 88 75 69 55 51 59 58 51 48 49 56 58 58 56 55 50 49 47 46 46 47 48 46 41 41 40 43 40 39 38 39 37 39
46 39 42 42 40 47 49 42 29 25 29 39 55 78 96 96 89 81 84 67 59 67 47 49 46 51 51 55 54 54 54 49 47 44 43 41 43 48 47 44 41 39 37 38 39 37 39 39 37
41 39 39 39 39 43 47 42 29 24 25 36 55 80 100 99 93 87 85 83 68 66 60 53 53 57 53 50 51 52 51 50 51 47 45 43 42 45 47 45 44 43 42 42 39 38 39 39 39
40 35 36 36 39 38 42 43 30 21 22 35 56 82 101 101 99 92 95 85 74 75 70 58 50 64 62 57 55 52 50 49 50 49 44 43 45 44 43 43 44 45 44 42 41 39 39 41 40
38 36 37 33 33 38 39 37 35 18 19 35 55 82 103 105 100 96 101 96 79 80 72 69 74 69 54 66 59 57 56 52 47 45 43 42 43 39 37 39 41 41 41 40 40 41 43 43 43
35 34 33 32 35 35 34 34 32 20 14 33 54 80 104 108 106 102 102 102 91 91 70 73 66 76 76 62 57 57 52 49 48 47 44 40 38 39 41 43 42 40 40 41 43 45 47 48 47
36 34 31 28 30 33 33 34 30 21 10 27 48 76 101 108 107 105 101 104 94 91 86 80 77 72 68 66 60 61 61 56 55 54 49 42 42 41 41 39 39 40 44 44 46 47 50 52 50
34 31 33 29 24 30 31 29 30 22 11 19 41 69 97 108 109 107 101 106 99 90 91 83 90 78 70 73 67 68 65 63 61 53 54 49 45 40 39 42 42 43 43 44 46 50 52 53 55
33 30 30 30 30 22 31 27 26 27 13 9 33 59 88 107 111 109 104 105 104 99 92 84 86 80 80 67 67 72 66 65 59 51 52 49 45 44 44 45 45 46 43 48 52 51 52 55 57
33 29 29 32 33 27 22 29 24 21 19 8 17 46 75 104 110 110 107 104 110 104 98 92 83 87 87 77 79 77 66 67 62 57 53 56 53 51 48 49 51 49 47 49 57 56 54 60 65
35 34 27 30 31 33 24 24 26 21 18 12 12 29 59 88 110 111 109 106 109 106 107 97 82 85 82 78 82 83 66 65 59 58 59 62 60 56 52 56 57 53 51 52 57 63 61 67 70
36 37 34 30 32 33 36 24 24 21 20 16 11 16 38 73 100 112 112 109 108 108 106 104 96 87 87 89 77 77 78 71 62 62 60 62 61 60 58 60 63 65 60 60 64 66 70 74 77
39 37 37 36 33 34 37 38 22 26 22 18 15 11 23 47 85 110 115 112 105 113 107 103 100 92 94 92 90 78 75 75 68 73 71 71 68 68 68 66 69 68 71 76 78 75 80 80 77
44 41 40 38 38 36 35 48 34 26 27 22 19 16 13 33 58 97 116 116 111 110 109 106 102 102 93 96 90 86 77 76 71 75 72 67 68 72 73 67 71 75 77 79 80 82 82 81 79
46 44 43 40 39 39 34 50 44 35 29 26 22 19 18 20 42 73 108 118 115 109 115 109 105 101 104 101 94 90 89 82 80 84 80 66 72 72 74 75 77 78 80 85 84 80 82 79 81
Wind_Direction
265 265 267 267 266 265 261 256 252 253 250 248 244 236 231 231 231 227 229 228 230 231 227 229 229 229 229 228 231 230 231 231 234 233 233 233 233 235 238 247 255 261 266 273 280 281 284 287 289
268 267 269 266 268 266 260 253 247 247 249 248 242 235 230 227 231 228 229 227 227 229 230 228 232 227 227 225 231 231 235 238 241 238 238 239 238 244 249 253 260 264 268 273 277 280 284 287 291
274 273 272 271 269 267 262 256 251 249 249 251 246 237 228 228 226 227 227 229 227 227 229 230 229 226 225 223 227 231 233 237 242 241 241 243 246 246 252 258 262 266 269 274 279 281 284 288 293
278 277 275 274 273 272 268 262 253 253 248 251 252 243 231 228 225 226 226 226 229 228 227 228 228 227 226 228 231 232 235 240 245 246 247 248 251 254 255 260 264 269 272 277 280 283 285 288 294
282 280 278 276 275 273 272 269 264 256 250 249 251 248 235 228 227 224 226 225 227 228 227 227 227 229 229 228 232 235 236 240 244 246 249 251 251 254 259 261 265 270 274 277 281 283 286 289 293
286 284 282 280 277 275 272 268 265 263 256 245 245 248 240 228 226 224 224 225 226 228 228 226 228 228 230 231 235 238 239 241 242 243 247 249 252 257 260 263 267 271 274 276 278 281 284 287 294
285 283 281 280 280 281 276 273 267 262 256 252 241 239 241 230 224 225 223 223 224 226 228 228 227 228 230 232 236 239 240 243 241 244 245 249 254 256 259 264 268 270 273 277 279 282 285 288 289
286 286 288 289 287 286 284 280 273 260 250 245 244 233 234 233 222 223 224 223 223 224 227 228 227 229 230 233 238 240 240 241 241 244 245 248 251 254 259 264 268 268 271 276 280 284 286 286 288
291 291 292 293 291 289 288 287 272 258 246 240 239 230 229 232 222 219 221 225 222 223 225 228 228 228 230 233 237 241 242 241 242 245 244 248 254 256 261 263 265 269 271 275 280 284 284 291 296
291 291 292 294 292 291 291 289 276 256 240 233 228 225 223 225 221 216 215 220 222 223 225 225 228 229 231 232 233 238 240 243 243 244 249 252 255 259 263 266 269 275 278 280 282 282 285 291 295
293 293 294 295 298 298 299 299 283 255 237 229 222 219 217 219 217 213 212 216 221 223 225 226 227 228 229 230 233 236 240 242 245 249 251 253 254 258 260 264 272 274 280 278 274 282 288 291 291
298 296 298 301 306 304 305 303 281 254 239 227 217 214 213 214 213 209 209 211 220 226 226 227 229 229 228 230 233 235 238 244 247 249 252 252 251 256 262 266 270 273 277 266 275 284 289 289 288
304 302 304 306 311 310 312 309 289 262 240 228 218 209 208 209 208 204 202 206 214 230 226 229 229 229 228 228 232 235 237 241 244 248 252 252 253 256 266 267 271 271 267 266 278 286 288 284 283
309 307 310 312 317 316 317 317 290 265 239 225 217 206 204 204 205 201 195 200 198 231 226 227 227 230 229 231 231 234 238 242 244 246 251 251 256 259 263 266 270 265 265 275 279 287 282 282 280
314 311 313 317 322 322 320 322 296 265 238 222 214 204 201 201 200 195 190 192 201 209 222 225 227 229 231 232 234 235 236 240 243 246 246 254 255 254 257 263 263 258 261 269 275 283 276 281 279
315 314 318 322 326 326 324 325 302 269 240 219 211 201 199 199 197 190 181 177 212 213 212 223 227 230 229 229 232 234 233 234 241 245 246 248 250 251 257 263 264 262 265 271 274 277 276 281 281
317 316 320 323 329 328 330 328 307 272 239 219 206 198 197 197 194 189 185 188 195 207 209 220 236 231 229 229 231 232 233 236 239 238 242 245 249 250 254 260 263 264 262 270 272 275 276 280 278
316 315 321 326 330 332 336 331 316 278 243 215 202 195 195 196 192 189 185 189 181 200 208 208 218 236 233 228 227 229 231 234 237 237 240 245 250 253 255 257 263 267 269 268 270 274 277 276 276
317 313 321 328 330 335 337 334 324 291 242 214 202 193 194 196 194 190 187 187 189 190 195 208 212 228 227 230 229 229 232 232 234 235 239 243 247 249 254 256 261 263 268 273 272 273 275 273 276
317 314 321 324 333 332 336 343 333 308 244 213 204 192 194 196 195 193 192 192 189 191 201 204 202 216 228 224 227 232 237 237 237 233 238 236 242 246 254 259 260 265 266 271 269 271 273 273 278
316 313 319 325 330 330 334 342 350 326 253 212 205 196 194 197 197 196 196 194 194 193 195 197 211 215 218 225 228 229 232 233 238 236 231 232 240 245 255 256 255 261 266 272 273 273 273 275 279
313 310 315 323 329 328 334 336 349 345 276 215 209 200 197 198 199 198 197 196 195 195 198 201 202 202 211 227 227 229 232 233 236 233 235 240 242 255 259 258 261 265 268 273 275 276 280 279 278
307 308 310 313 324 329 330 335 342 357 323 221 212 207 200 200 201 200 199 198 195 197 198 205 205 210 216 223 224 230 229 233 236 236 236 237 245 259 262 259 260 263 272 274 277 277 281 282 277
295 304 305 304 308 322 325 331 337 348 344 260 215 212 206 203 203 204 202 200 198 200 197 206 206 209 205 210 225 230 223 231 229 237 232 234 246 255 258 264 269 271 269 276 278 278 278 280 277
284 292 297 299 305 311 319 319 328 330 345 309 232 216 211 206 207 208 206 203 202 202 200 203 205 202 204 213 228 225 233 235 236 234 232 243 249 252 257 260 264 268 265 272 274 276 274 278 272
277 276 286 288 296 299 303 312 312 318 323 332 256 226 217 211 209 210 210 207 203 203 202 204 209 207 211 219 222 228 229 234 241 243 238 244 246 251 260 262 263 262 264 267 272 273 272 273 272
273 270 274 281 282 286 293 294 306 310 312 320 307 244 224 216 212 212 212 210 206 203 203 205 210 211 209 213 216 223 229 237 237 238 243 243 246 250 256 258 258 264 267 267 264 268 269 269 276
272 265 267 272 272 276 285 288 287 299 303 305 310 296 233 221 215 213 213 212 211 206 208 208 210 211 212 213 218 224 232 237 241 243 245 248 253 250 258 258 260 261 266 270 269 271 277 278 282
273 269 264 265 268 266 272 281 280 282 294 297 296 303 269 227 220 214 213 214 212 209 207 208 208 212 211 215 222 223 229 239 240 238 242 248 249 251 254 256 261 263 266 269 270 273 277 278 279
271 268 265 265 263 261 261 271 276 271 274 287 291 297 300 249 225 220 214 214 213 211 207 210 210 213 218 221 224 224 227 234 239 244 246 245 248 250 253 262 266 265 264 264 269 271 274 278 280
Height
10753 10752 10752 10751 10752 10758 10762 10764 10761 10757 10755 10757 10766 10778 10786 10791 10794 10799 10801 10809 10813 10818 10824 10830 10834 10838 10841 10844 10847 10850 10852 10855 10857 10859 10862 10864 10866 10868 10869 10870 10871 10871 10871 10872 10872 10872 10872 10872 10872
10742 10743 10743 10743 10742 10745 10748 10749 10749 10744 10741 10744 10753 10765 10774 10780 10786 10790 10792 10799 10805 10811 10816 10823 10828 10832 10836 10839 10842 10845 10848 10851 10853 10856 10858 10860 10862 10864 10865 10866 10867 10867 10867 10868 10868 10868 10868 10868 10868
10732 10731 10731 10731 10730 10729 10734 10736 10737 10736 10735 10734 10742 10753 10764 10769 10772 10778 10782 10789 10796 10802 10808 10814 10820 10825 10829 10833 10836 10838 10842 10845 10848 10851 10853 10855 10857 10859 10860 10861 10862 10863 10863 10863 10864 10863 10863 10863 10862
10719 10716 10716 10714 10713 10713 10714 10716 10723 10725 10724 10724 10732 10741 10753 10755 10761 10766 10773 10780 10787 10793 10799 10806 10812 10817 10822 10826 10829 10833 10836 10840 10843 10846 10848 10850 10852 10853 10854 10856 10857 10857 10858 10859 10859 10859 10858 10858 10857
10704 10701 10698 10697 10694 10695 10691 10688 10699 10702 10710 10714 10717 10727 10740 10746 10748 10755 10762 10770 10777 10785 10791 10798 10804 10809 10814 10819 10822 10826 10830 10833 10836 10840 10842 10845 10846 10847 10849 10850 10851 10852 10853 10854 10853 10853 10853 10852 10851
10689 10684 10680 10678 10675 10673 10670 10671 10675 10677 10684 10695 10700 10711 10724 10729 10735 10741 10750 10759 10767 10775 10783 10790 10796 10802 10807 10811 10815 10819 10823 10826 10829 10832 10836 10838 10840 10841 10843 10844 10845 10846 10846 10847 10847 10847 10847 10846 10845
10673 10667 10661 10659 10656 10650 10645 10648 10653 10657 10661 10662 10682 10696 10704 10714 10722 10730 10739 10749 10758 10766 10773 10781 10787 10792 10798 10804 10808 10812 10815 10819 10822 10825 10828 10832 10833 10835 10837 10838 10839 10839 10840 10841 10841 10840 10840 10840 10840
10656 10649 10643 10639 10634 10626 10619 10624 10625 10628 10633 10636 10654 10676 10683 10696 10709 10719 10731 10739 10749 10757 10763 10770 10778 10783 10789 10795 10801 10804 10808 10811 10815 10818 10821 10824 10826 10828 10830 10832 10833 10832 10834 10834 10834 10834 10834 10833 10833
10640 10632 10624 10620 10613 10603 10597 10599 10599 10602 10605 10612 10628 10654 10664 10679 10696 10706 10718 10731 10741 10748 10752 10760 10768 10775 10781 10787 10793 10797 10801 10804 10808 10810 10814 10817 10818 10821 10823 10825 10826 10826 10827 10828 10828 10827 10827 10826 10827
10625 10616 10610 10604 10592 10587 10575 10577 10574 10573 10576 10586 10600 10626 10640 10659 10679 10693 10710 10718 10726 10736 10742 10749 10757 10766 10773 10779 10784 10789 10794 10797 10800 10803 10806 10809 10811 10813 10815 10818 10819 10819 10819 10820 10820 10820 10820 10820 10819
10610 10604 10595 10588 10577 10567 10557 10554 10550 10548 10550 10555 10577 10599 10620 10639 10662 10681 10696 10706 10712 10721 10732 10742 10748 10757 10764 10771 10777 10782 10786 10789 10792 10795 10798 10801 10803 10805 10808 10809 10811 10811 10811 10812 10812 10813 10813 10813 10812
10596 10590 10583 10571 10560 10550 10545 10538 10530 10528 10528 10538 10555 10578 10603 10624 10649 10668 10685 10698 10708 10717 10725 10734 10741 10747 10755 10762 10768 10773 10776 10781 10785 10788 10790 10793 10795 10797 10800 10801 10802 10803 10804 10804 10804 10805 10806 10806 10805
10586 10576 10570 10559 10548 10536 10531 10523 10515 10516 10521 10531 10541 10563 10586 10611 10636 10656 10676 10694 10709 10713 10720 10727 10733 10738 10745 10752 10758 10763 10767 10772 10776 10779 10781 10784 10787 10788 10791 10792 10794 10795 10796 10797 10796 10798 10799 10799 10798
10575 10570 10558 10550 10538 10527 10517 10512 10502 10506 10510 10516 10530 10548 10574 10602 10626 10649 10668 10687 10697 10706 10713 10720 10725 10731 10736 10742 10748 10753 10758 10762 10766 10770 10773 10775 10778 10780 10782 10783 10785 10786 10788 10789 10790 10790 10791 10792 10791
10566 10558 10554 10541 10532 10519 10507 10503 10494 10494 10498 10506 10519 10537 10562 10589 10616 10641 10658 10675 10691 10694 10699 10712 10715 10722 10727 10732 10738 10743 10747 10752 10756 10760 10763 10766 10768 10770 10773 10774 10777 10779 10781 10781 10782 10783 10784 10784 10784
10557 10552 10543 10534 10525 10514 10500 10494 10488 10487 10489 10497 10509 10526 10553 10581 10606 10630 10643 10661 10675 10689 10695 10703 10706 10710 10715 10721 10726 10732 10736 10742 10746 10750 10754 10757 10760 10762 10764 10766 10767 10769 10772 10774 10774 10775 10776 10777 10778
10548 10543 10536 10529 10522 10508 10497 10488 10482 10480 10482 10490 10499 10518 10544 10569 10596 10618 10633 10643 10654 10680 10692 10695 10694 10698 10704 10711 10716 10721 10727 10732 10735 10739 10743 10746 10750 10753 10755 10756 10758 10761 10763 10765 10766 10767 10767 10768 10769
10544 10536 10531 10522 10516 10507 10494 10484 10477 10475 10478 10484 10492 10510 10535 10558 10581 10599 10617 10631 10645 10659 10676 10679 10681 10690 10695 10701 10707 10712 10716 10720 10723 10728 10733 10736 10740 10744 10746 10748 10750 10752 10753 10755 10757 10758 10758 10759 10759
10535 10531 10525 10518 10509 10504 10495 10481 10474 10471 10474 10480 10487 10502 10527 10548 10562 10584 10600 10615 10626 10638 10650 10659 10674 10677 10681 10687 10694 10699 10703 10707 10712 10717 10722 10726 10731 10734 10737 10738 10740 10742 10743 10745 10747 10748 10750 10750 10750
10528 10523 10517 10513 10508 10500 10493 10485 10472 10469 10470 10476 10484 10494 10513 10531 10552 10569 10582 10594 10608 10617 10631 10643 10654 10662 10667 10671 10678 10686 10693 10700 10705 10710 10714 10716 10721 10724 10728 10730 10731 10732 10734 10736 10738 10738 10740 10742 10742
10523 10517 10513 10508 10500 10496 10492 10486 10475 10468 10468 10473 10480 10490 10502 10515 10533 10551 10565 10579 10589 10605 10616 10625 10638 10647 10654 10655 10662 10672 10681 10690 10698 10700 10702 10706 10711 10716 10718 10719 10722 10723 10725 10727 10728 10729 10730 10730 10731
10516 10511 10507 10504 10500 10492 10489 10483 10478 10470 10468 10471 10478 10486 10496 10507 10523 10541 10554 10568 10581 10591 10600 10613 10620 10629 10639 10645 10651 10661 10671 10678 10682 10689 10695 10699 10703 10707 10710 10712 10713 10715 10715 10716 10717 10718 10719 10719 10719
10510 10506 10500 10498 10497 10490 10485 10483 10477 10473 10467 10468 10474 10482 10492 10501 10514 10529 10544 10555 10566 10579 10592 10602 10610 10622 10630 10632 10644 10652 10659 10665 10671 10679 10686 10690 10694 10698 10701 10702 10703 10704 10705 10705 10705 10706 10707 10706 10706
10502 10501 10495 10491 10489 10488 10481 10478 10476 10471 10467 10465 10469 10476 10488 10494 10502 10517 10531 10545 10556 10567 10582 10589 10600 10611 10618 10623 10630 10640 10645 10651 10659 10668 10675 10679 10682 10686 10689 10690 10691 10692 10692 10692 10692 10691 10693 10694 10694
10493 10493 10491 10483 10480 10480 10479 10473 10473 10470 10467 10463 10463 10467 10476 10487 10495 10507 10519 10531 10543 10555 10566 10576 10586 10597 10606 10616 10618 10628 10635 10642 10651 10659 10663 10667 10671 10674 10675 10676 10679 10680 10679 10680 10679 10678 10679 10680 10679
10482 10482 10483 10480 10474 10468 10472 10470 10466 10464 10463 10461 10457 10458 10465 10475 10484 10496 10509 10522 10534 10546 10556 10567 10578 10588 10598 10607 10609 10617 10626 10633 10640 10645 10649 10654 10658 10661 10662 10664 10666 10666 10666 10666 10666 10664 10664 10665 10665
10469 10470 10472 10471 10468 10462 10458 10462 10461 10458 10456 10455 10452 10450 10453 10461 10472 10484 10495 10508 10521 10532 10544 10555 10566 10574 10587 10594 10600 10608 10616 10622 10627 10631 10635 10640 10645 10647 10648 10649 10651 10653 10653 10652 10652 10651 10650 10650 10652
10455 10457 10459 10460 10460 10456 10449 10447 10452 10449 10448 10447 10447 10445 10444 10447 10455 10466 10479 10493 10507 10521 10533 10545 10556 10567 10575 10585 10593 10602 10604 10607 10616 10618 10624 10628 10632 10633 10633 10635 10636 10637 10637 10636 10636 10637 10638 10637 10637
10439 10442 10445 10448 10448 10450 10449 10428 10442 10442 10441 10440 10440 10439 10437 10436 10439 10449 10463 10476 10491 10508 10524 10536 10546 10557 10569 10576 10582 10590 10592 10595 10603 10604 10610 10615 10616 10617 10617 10621 10622 10622 10623 10621 10622 10622 10620 10618 10618
10424 10426 10429 10433 10434 10436 10442 10419 10426 10431 10433 10434 10433 10432 10430 10428 10427 10432 10443 10459 10474 10493 10507 10520 10534 10546 10555 10562 10571 10577 10583 10586 10591 10592 10598 10600 10600 10602 10606 10604 10604 10607 10607 10606 10605 10605 10603 10600 10599